彩虹 29星 (RADUGA 29)

导读 | 星芒AI

RADUGA 29 是一颗由俄罗斯发射的电子侦察卫星,主要用于监听和收集外国的通信与雷达信号,以支持俄罗斯的军事情报活动。该卫星属于俄罗斯“彩虹”(Raduga)系列,具备先进的信号拦截和分析能力。其轨道设计使其能够覆盖广泛的地理区域,提高情报获取的效率。RADUGA 29 的部署增强了俄罗斯在太空领域的监视能力,对国家安全和战略决策具有重要意义。

基本信息
目录编号:
22557
目录名称:
RADUGA 29
国际标识:
1993-013A
轨道中心:
EARTH
卫星名称:
彩虹 29星
卫星全名:
彩虹 29星 (RADUGA 29)
卫星状态:
在轨 (已飞行11891 天)
发射日期:
1993-03-25 UTC
国别 :
俄罗斯(独联体) (CIS)
星等 :
--
轨道信息
数据来源 国际轨道数据 AOE轨道数据
星历时间 2025-10-14T02:41:47+0800
19小时前
查看轨道信息
2025-10-12T04:00:00+0800
2天前
查看轨道信息
半长轴 42145.62km 42145.956km
偏心率 0.0005357 0.0005443
轨道倾角 13.977° 13.977°
近地点辐角 189.461° 188.636°
升交点赤经 346.938° 346.952°
平近点角 156.723° 174.702°
近地点 35744.907km 35744.88km
远地点 35790.063km 35790.762km
周期 1435.121分钟 1435.138分钟
每日圈数 1.0034 1.003388
详细信息
平衡模式:
三轴稳定
覆盖范围:
全球
运营商:
俄罗斯国家航天集团
运营商所在国:
俄罗斯
制造商(研发单位):
普里克拉德诺伊·梅哈尼基设计局
制造商所在国:
俄罗斯联邦
使用方式:
暂无
卫星简介
彩虹卫星(Raduga, Gran)是苏联用于军事和通信目的的一系列地球静止通信卫星。彩虹卫星旨在支持军事通信、Orbita地面电视网络,并在整个东半球(极地地区除外)提供电话和电报通信。该卫星已退役。
2D轨道图
3D轨道图
轨道高度分析图
轨道倾角分析图
轨道综合分析图
查看轨道综合分析图